Find Starlink 34027

NORAD ID: 63936 Int'l Des: 2025-098 Owner: SPXS Country: US Constellation: starlink operational
LEOCIRCULAR

当前视图

正在加载3D地球...

关于 Starlink 34027

正在加载描述...

即将过境

Passes for default location (London). Set your location on the main map for personalized predictions.

高度历史

Loading altitude history...

两行轨道根数

1 63936U 25098L 26145.10814882 .00004607 00000-0 39367-3 0 9999
2 63936 70.0007 81.5969 0003148 269.2625 90.8173 14.98329331 58003
Epoch: May 25, 2026 • Age: 12 hours

当前状态

高度 584.1 km
速度 7.57 km/s
星下点 61.83°N, 120.12°E
发射日期 May 13, 2025
运行时间 1 years
类型 internet

技术详情

分类 Payload
质量 575.00 kg
干质量 530.00 kg
总质量 575.00 kg
长度 0.30 m
直径 4.10 m
跨度 29.00 m
形状 Box + pan
制造商 SPXS
平台类型 Starlink V2MO
阶段状态 In Orbit
所有者/国家 SPXS/US

Most Searched